Location: Ermatingen
(47.6706°N, 9.0857°E)
Time: 15:15:44
(UTC+00:00)

Cosmos 1844 - Pass Details

Date: 18 September 2020
Orbit: 824 x 866 km, 70.9° (Epoch: 24 October)

Event Time Altitude Azimuth Distance (km) Brightness Sun altitude
Rises 19:26:17 0° 191° (S) 3,413 6.7 -19.9°
Reaches altitude 10° 19:28:47 10° 187° (S) 2,475 5.9 -20.2°
Maximum altitude 19:34:18 55° 111° (ESE) 1,013 3.7 -21.1°
Drops below altitude 10° 19:39:48 10° 35° (NE) 2,464 6.0 -21.9°
Sets 19:42:17 0° 31° (NNE) 3,396 6.8 -22.3°
